Regional Weather Roundup
Issued by NWS

Home | Current Version | Previous Version | Text Only | Print | Product List | Glossary On
Versions: 1 2 3 4 5 6 7 8 9 10 11 12 13 14 15 16 17 18 19 20 21 22 23 24 25 26 27 28 29 30 31 32 33 34 35 36 37 38 39 40 41 42 43 44 45 46 47 48 49 50
000
ASCA44 KEWX 300720
RWRMX

LATIN AMERICA AND CARIBBEAN REGIONAL WEATHER ROUNDUP
NATIONAL WEATHER SERVICE AUSTIN/SAN ANTONIO TX
200 AM CDT FRI SEP 30 2016

NOTE: "FAIR" INDICATED FEW OR NO CLOUDS BELOW 12,000 FEET WITH NO
SIGNIFICANT WEATHER AND/OR OBSTRUCTIONS TO VISIBILITY.

BAJA CALIFORNIA

CITY           SKY/WX    TMP DP  RH WIND       PRES   REMARKS
MEXICALI       CLEAR     79  54  41 N7        29.96S
S.J. DEL CABO    N/A    N/A N/A N/A MISG        N/A
TIJUANA        CLEAR     72  59  64 CALM      30.06S

NORTHWESTERN MEXICO

CITY           SKY/WX    TMP DP  RH WIND       PRES   REMARKS
HERMOSILLO     MOCLDY    81  70  69 CALM      30.02S

NORTHEASTERN MEXICO

CITY           SKY/WX    TMP DP  RH WIND       PRES   REMARKS
MONCLOVA         N/A    N/A N/A N/A MISG        N/A
MONTERREY      CLOUDY    75  68  78 CALM      30.15F
REYNOSA          N/A    N/A N/A N/A MISG        N/A
CD. VICTORIA     N/A    N/A N/A N/A MISG        N/A

WESTERN MEXICO

CITY           SKY/WX    TMP DP  RH WIND       PRES   REMARKS
AGUASCALIENTES MOCLDY    64  54  68 SE2       30.39S
COLIMA           N/A    N/A N/A N/A MISG        N/A
GUADALAJARA    LGT RAIN  63  61  94 CALM      30.31R
MAZATLAN       MOCLDY    77  75  94 CALM      29.99F
P. VALLARTA    CLOUDY    77  75  94 NE3       30.02S
URUAPAN          N/A    N/A N/A N/A MISG        N/A
ZACATECAS        N/A    N/A N/A N/A MISG        N/A

CENTRAL MEXICO

CITY           SKY/WX    TMP DP  RH WIND       PRES   REMARKS
CUERNAVACA       N/A    N/A N/A N/A MISG        N/A
MEXICO CITY    PTCLDY    57  54  88 E3        30.44F
MORELIA          N/A    N/A N/A N/A MISG        N/A
POZA RICA        N/A    N/A N/A N/A MISG        N/A
QUERETARO      MOCLDY    57  57 100 SE6       30.43R
S. LUIS POTOSI MOCLDY    61  55  82 E9        30.37F
TOLUCA         FOG       50  48  93 CALM      30.51F VSB 1/2

SOUTHERN MEXICO

CITY           SKY/WX    TMP DP  RH WIND       PRES   REMARKS
ACAPULCO       MOCLDY    82  79  89 NW6       29.97F HX  93
B. DE HUATULCO   N/A    N/A N/A N/A MISG        N/A
P. ESCONDIDO     N/A    N/A N/A N/A MISG        N/A
VERACRUZ         N/A    N/A N/A N/A MISG        N/A

YUCATAN PENINSULA

CITY           SKY/WX    TMP DP  RH WIND       PRES   REMARKS
CAMPECHE         N/A    N/A N/A N/A MISG        N/A
CANCUN         PTCLDY    77  77 100 NW3       30.00F
CHETUMAL         N/A    N/A N/A N/A MISG        N/A
CD. DEL CARMEN   N/A    N/A N/A N/A MISG        N/A
COZUMEL        PTCLDY    79  77  94 CALM      30.00F
MERIDA         CLEAR     73  72  94 CALM      30.01F
MINATITLAN       N/A    N/A N/A N/A MISG        N/A
TAPACHULA      MOCLDY    77  73  88 CALM      29.90F

CENTRAL AMERICA

CITY           SKY/WX    TMP DP  RH WIND       PRES   REMARKS
MANAGUA        MOSUNNY   77  73  88 CALM      29.89S

CARIBBEAN

CITY           SKY/WX    TMP DP  RH WIND       PRES   REMARKS
CURACAO        PTCLDY    81  73  78 SW9       29.71F
KINGSTON       PTCLDY    84  77  79 NW9       29.86F HX  94
NASSAU         PTCLDY    81  75  83 E3        30.06F
SAN JUAN       PTCLDY    81  77  89 E9        29.92F
SANTO DOMINGO  MOCLDY    77  75  94 N9        29.89
ST. CROIX      CLEAR     81  75  83 NE9       29.91F
ST. MAARTEN    PTCLDY    82  75  78 E12       29.92S
ST. THOMAS     PTCLDY    82  75  78 E7        29.91F

$$





USA.gov is the U.S. government's official web portal to all federal, state and local government web resources and services.